Wetbulb
48.90 44.03 41.00 43.91 46.43 48.23 46.24 43.88 43.25 46.43 47.26 44.25 43.52 44.72 47.58 49.51 45.82 45.47 46.26 47.57 50.83 55.56 57.08 58.82 59.92 61.19 61.21 59.97 58.35 58.43 59.76 61.03 62.48 60.89 59.64 58.87 58.82 59.09 59.89 61.32 62.12 62.20 60.90 60.70
44.81 41.48 45.79 48.04 48.21 46.21 46.15 43.98 43.15 45.48 44.12 41.75 42.70 43.47 46.71 48.77 49.46 49.09 46.54 47.08 48.21 51.77 54.70 58.12 58.84 59.94 61.08 61.33 61.19 58.34 58.43 59.60 60.68 61.28 61.02 59.37 59.17 59.61 60.29 62.34 62.17 61.94 61.22 60.90
40.85 43.17 47.92 47.28 45.48 44.16 44.99 43.66 42.67 43.36 43.45 44.34 41.33 40.33 44.17 48.40 48.79 48.44 48.57 47.70 48.64 49.43 52.46 55.16 58.10 59.34 60.73 61.26 61.80 61.26 58.58 59.10 59.51 60.42 60.58 60.19 60.64 60.78 60.82 61.22 61.62 62.04 61.67 61.28
43.16 46.24 45.41 44.76 43.58 44.79 41.12 45.80 44.87 43.91 41.98 38.20 40.77 32.67 41.22 45.59 47.92 48.76 47.85 45.46 45.91 47.37 50.97 54.03 57.35 58.31 60.28 61.25 62.31 62.63 61.22 59.12 59.79 60.28 60.09 60.07 60.15 59.66 61.11 61.61 62.15 62.08 61.96 61.38
41.01 42.50 43.96 42.62 44.03 46.90 42.74 46.32 43.96 41.56 39.80 38.62 39.45 34.94 38.18 43.95 43.44 46.43 49.51 48.05 47.44 47.08 48.88 52.13 54.83 57.95 60.08 61.42 62.10 62.78 62.74 60.98 59.68 60.21 60.28 60.71 60.80 61.63 61.67 61.68 61.30 61.75 61.41 61.33
42.47 44.83 45.95 45.74 47.70 47.04 44.36 41.47 40.14 38.60 39.15 32.96 37.70 36.86 36.37 40.66 43.67 45.49 48.14 49.52 49.55 48.76 47.56 50.59 53.19 55.75 58.16 60.15 61.42 62.03 62.36 62.48 61.97 60.25 60.15 60.96 61.16 60.84 61.02 61.06 60.81 61.01 60.14 59.65
40.38 41.77 42.50 45.25 43.01 43.08 42.67 40.08 31.52 31.67 31.33 30.73 35.92 35.44 38.79 44.03 45.83 45.65 45.52 45.58 46.96 49.71 48.00 47.75 50.86 53.17 55.86 57.59 59.91 61.22 61.67 61.92 62.85 62.26 61.40 61.31 61.83 61.33 61.05 61.23 61.29 59.63 58.11 56.79
34.76 32.02 39.23 45.39 43.17 39.36 41.00 39.79 30.73 25.12 26.58 28.66 29.81 30.06 37.67 46.58 46.05 43.72 44.14 45.72 44.14 43.35 46.89 47.26 48.49 51.44 54.16 56.08 57.66 59.18 60.17 61.18 62.09 62.55 62.43 62.53 62.34 62.46 62.22 62.16 61.99 60.64 59.01 57.58
34.25 33.87 40.72 44.26 43.76 43.05 38.62 36.95 39.70 30.95 23.45 26.56 30.64 34.82 40.98 43.51 43.02 41.91 42.17 42.87 43.55 42.82 43.95 42.51 46.15 48.02 51.81 54.05 55.27 56.88 57.72 59.13 60.20 61.55 62.33 62.34 62.43 62.34 62.28 62.33 61.90 61.59 59.43 56.08
38.92 31.75 38.21 37.87 43.74 42.02 40.99 42.21 34.51 34.08 22.88 22.45 29.27 31.35 34.38 37.66 41.21 43.10 42.64 42.74 42.49 43.02 42.72 42.90 43.75 44.32 45.26 46.75 50.54 53.98 55.64 56.81 57.95 58.54 60.81 61.67 62.19 62.42 62.53 61.92 61.08 60.91 59.14 53.23
41.36 36.20 33.99 37.96 38.08 36.31 37.87 37.26 38.51 37.77 34.23 26.71 24.50 29.40 36.41 40.80 42.28 42.01 39.91 41.15 41.35 42.59 42.77 43.05 43.52 44.00 44.08 44.39 44.57 46.09 49.21 51.50 53.11 55.42 57.88 58.16 59.19 59.77 59.10 60.87 59.89 58.85 52.38 49.84
40.29 35.93 29.95 33.38 38.05 42.28 41.32 39.20 38.90 33.59 30.10 31.79 30.01 29.71 39.33 39.28 39.60 40.90 40.60 42.05 42.40 43.27 42.96 43.47 43.92 44.10 43.90 43.90 44.10 44.42 45.38 46.87 48.52 50.04 52.00 54.28 56.07 55.41 56.59 57.50 55.35 51.16 49.09 47.48
39.78 33.90 28.32 29.61 33.24 35.78 37.68 39.65 40.91 37.76 33.58 29.01 26.68 30.12 41.06 38.99 39.49 40.28 40.36 41.16 42.29 41.99 42.45 43.45 43.27 43.18 43.34 43.16 43.35 44.01 44.67 45.55 47.43 48.26 48.54 50.40 52.90 54.43 54.80 52.31 49.56 47.76 46.24 45.43
42.42 35.91 32.17 28.55 32.76 35.11 33.70 37.12 39.18 37.54 29.74 30.52 32.88 34.61 35.11 37.56 38.97 39.27 40.24 41.52 41.96 42.81 44.40 43.59 42.71 42.79 43.33 43.43 43.33 43.30 44.07 45.26 46.30 46.88 46.87 46.84 48.05 49.55 49.93 47.85 45.59 44.16 43.13 41.45
40.37 30.70 34.74 35.32 37.47 36.98 36.15 36.92 38.16 36.83 37.78 33.61 36.06 36.34 39.55 40.56 40.36 42.33 42.94 44.08 42.71 43.37 43.89 43.19 42.60 42.26 43.16 43.21 42.96 43.34 43.72 44.49 45.28 45.14 45.10 45.22 44.89 45.76 45.05 42.63 42.70 40.58 39.81 40.27
39.29 30.84 32.95 26.70 35.13 36.60 33.78 37.00 37.92 38.39 38.58 37.86 36.23 36.08 42.17 41.60 41.75 42.22 42.40 43.21 42.34 42.50 43.10 42.73 42.87 42.34 43.04 43.02 42.64 43.07 42.87 43.26 43.56 43.16 42.85 43.98 42.57 39.95 37.33 35.90 35.39 36.17 35.32 36.15
37.09 32.76 31.25 23.33 29.11 30.58 25.11 33.82 36.39 37.44 39.52 39.04 34.27 39.07 40.18 39.67 41.50 41.44 42.06 42.40 42.31 42.84 42.64 42.84 42.07 42.13 42.49 42.81 43.37 41.74 42.13 42.41 41.33 39.23 37.95 37.54 36.15 35.34 34.84 33.63 34.07 33.76 33.04 32.41
35.71 32.49 31.74 25.93 28.87 20.37 31.27 39.82 39.83 37.98 39.21 40.56 40.69 40.14 41.66 41.56 42.68 42.80 42.35 40.58 42.01 42.63 41.56 40.64 40.86 41.26 41.94 43.13 43.09 42.52 41.94 39.86 37.09 35.93 35.61 34.34 33.79 32.98 32.20 31.63 31.96 32.07 31.67 31.66
39.18 34.65 28.32 26.12 25.74 29.28 31.94 33.36 36.85 35.16 35.64 41.31 40.31 41.62 41.39 42.15 39.78 40.08 41.94 40.37 39.79 39.58 40.03 40.23 40.80 41.57 41.92 41.87 41.99 39.77 36.70 35.79 35.20 34.96 34.43 33.71 33.44 30.74 31.03 31.82 31.38 31.14 30.60 30.28
38.49 38.21 32.21 29.78 20.44 20.51 30.80 36.12 40.68 39.28 27.91 40.81 41.62 41.35 41.51 41.18 36.18 36.82 38.48 39.43 39.06 38.80 38.56 38.03 38.92 41.12 40.78 40.34 38.99 35.81 35.08 34.42 33.98 34.26 34.19 33.27 32.66 31.31 29.97 30.00 30.70 30.30 30.82 30.82
31.23 32.21 28.64 26.98 20.90 26.77 33.91 35.16 40.52 25.86 28.48 36.66 41.41 41.82 39.72 38.15 39.69 37.78 38.47 37.26 37.37 36.53 36.13 36.68 38.85 38.84 38.10 36.45 34.88 34.32 34.02 33.81 34.24 33.31 31.90 29.95 29.38 28.42 28.81 28.35 27.30 28.17 30.04 29.69
30.14 28.87 28.74 24.45 18.66 21.60 35.23 35.79 33.00 35.51 33.83 34.99 37.78 39.10 39.51 37.45 36.75 36.29 36.14 35.09 34.74 33.63 33.44 34.40 35.57 33.95 33.78 32.27 33.41 32.90 32.16 32.71 30.28 28.95 28.24 27.00 25.45 28.10 28.30 27.35 26.25 29.32 30.25 30.12
27.60 32.83 30.45 31.80 28.35 34.88 38.05 36.28 38.01 37.71 36.10 36.38 36.73 36.80 37.47 35.77 35.16 34.91 34.11 33.47 31.98 31.40 30.73 30.78 29.93 29.24 29.31 28.64 29.87 29.78 29.24 29.34 27.26 25.91 23.89 23.89 25.14 26.71 27.51 26.64 24.39 28.17 30.13 29.24
30.86 35.24 29.73 30.16 31.54 32.89 34.94 34.25 36.27 37.21 36.81 38.05 37.45 37.01 36.68 35.09 34.53 33.28 32.65 31.84 29.37 28.00 27.08 25.89 26.10 25.30 25.45 25.69 26.74 25.31 26.35 25.79 24.96 23.40 23.45 23.96 23.70 24.14 24.56 26.36 25.86 25.17 25.52 25.79
30.97 33.30 29.29 28.12 29.01 32.10 32.41 33.97 34.96 35.06 35.86 35.19 35.01 35.74 35.11 34.42 32.78 31.58 29.24 27.94 27.72 26.92 25.86 24.70 24.42 24.03 23.44 23.33 22.76 22.68 24.61 24.76 26.28 24.30 22.82 22.97 23.50 22.12 22.39 23.66 23.05 24.14 24.15 25.70
32.87 31.68 31.39 28.05 33.26 34.84 36.19 34.52 35.01 33.28 32.77 31.40 32.09 31.05 31.57 31.74 30.35 28.95 26.88 26.53 25.67 24.29 23.26 22.72 21.24 20.86 19.43 18.16 18.07 18.98 20.86 22.26 22.11 24.16 23.05 22.21 22.07 20.95 21.68 21.24 21.44 29.33 30.94 31.57
MSLP
1015.28 1015.73 1014.57 1015.15 1015.59 1015.63 1015.47 1015.56 1015.42 1014.97 1014.85 1015.06 1015.15 1015.05 1014.72 1014.43 1014.49 1014.46 1014.90 1014.65 1014.70 1015.08 1015.45 1015.91 1016.36 1016.84 1017.45 1018.12 1018.82 1019.38 1020.18 1020.72 1021.29 1021.56 1021.74 1022.07 1022.37 1022.55 1022.64 1022.58 1022.54 1022.69 1023.35 1023.95
1015.84 1014.17 1014.56 1015.04 1015.20 1015.33 1015.35 1015.38 1015.22 1015.29 1015.18 1015.31 1015.26 1014.90 1014.37 1013.91 1013.69 1013.85 1014.13 1014.14 1014.23 1014.36 1014.82 1015.37 1016.15 1016.56 1016.53 1016.94 1017.64 1018.48 1019.24 1019.94 1020.37 1020.64 1021.16 1021.44 1021.89 1022.21 1022.21 1022.32 1022.49 1022.58 1023.02 1023.49
1014.11 1013.75 1014.31 1014.43 1014.54 1015.10 1015.41 1015.41 1015.58 1015.68 1015.64 1015.71 1015.78 1014.85 1014.10 1013.43 1013.15 1013.17 1013.09 1013.22 1013.57 1014.04 1014.30 1014.78 1015.42 1015.89 1016.10 1016.33 1016.58 1017.29 1018.02 1018.83 1019.47 1019.98 1020.56 1021.04 1021.40 1021.65 1021.98 1022.22 1022.50 1022.62 1022.79 1023.20
1013.91 1013.94 1013.46 1013.61 1014.02 1014.78 1015.26 1015.69 1015.99 1016.36 1016.50 1016.85 1016.40 1015.23 1013.64 1012.92 1012.51 1012.40 1012.42 1012.61 1012.86 1013.27 1013.53 1013.93 1014.36 1014.86 1015.01 1015.54 1016.03 1016.46 1017.08 1017.87 1018.58 1019.28 1019.75 1020.05 1020.39 1020.71 1020.94 1021.28 1021.75 1022.01 1022.24 1022.50
1012.47 1012.53 1012.82 1013.19 1013.63 1014.50 1015.52 1015.94 1016.86 1017.32 1017.72 1017.78 1016.93 1016.48 1013.35 1012.48 1012.02 1011.60 1011.75 1011.91 1012.05 1012.30 1012.75 1013.05 1013.38 1013.61 1014.10 1014.89 1015.16 1015.49 1016.15 1016.92 1017.52 1018.09 1018.55 1019.09 1019.65 1020.02 1020.39 1020.70 1021.30 1021.75 1021.81 1021.99
1012.55 1012.63 1013.05 1013.29 1013.98 1014.50 1015.88 1016.86 1017.95 1018.70 1018.74 1018.25 1016.97 1016.48 1013.30 1012.48 1011.92 1011.21 1010.85 1010.86 1011.27 1011.64 1012.02 1012.44 1012.70 1013.27 1013.78 1014.45 1015.03 1015.32 1015.62 1016.03 1016.54 1017.14 1017.72 1018.19 1018.72 1019.26 1019.69 1019.92 1020.30 1020.74 1021.12 1021.50
1012.65 1013.06 1013.38 1013.47 1014.13 1015.22 1015.55 1016.76 1018.63 1019.66 1019.47 1017.52 1016.19 1015.74 1013.21 1011.68 1011.26 1010.97 1010.87 1010.68 1010.60 1010.65 1011.15 1011.70 1012.36 1012.93 1013.43 1013.94 1014.29 1014.80 1015.16 1015.38 1015.70 1016.26 1016.72 1017.17 1017.73 1018.27 1018.66 1019.05 1019.43 1019.89 1020.45 1020.82
1011.19 1013.91 1013.37 1012.83 1013.28 1014.22 1015.19 1015.68 1016.50 1017.56 1018.37 1017.27 1016.51 1014.39 1012.08 1010.85 1010.45 1010.27 1010.35 1010.35 1010.46 1010.84 1010.98 1011.17 1011.77 1012.39 1013.06 1013.65 1014.20 1014.65 1014.76 1014.85 1015.07 1015.37 1015.72 1016.33 1016.88 1017.31 1017.79 1018.07 1018.50 1019.00 1019.60 1020.02
1009.73 1012.28 1013.24 1013.02 1013.21 1014.17 1015.45 1015.42 1015.68 1016.75 1018.02 1017.44 1015.65 1013.82 1012.18 1010.84 1010.35 1010.39 1010.44 1010.63 1010.75 1010.95 1011.06 1011.31 1011.39 1011.96 1012.78 1013.51 1013.81 1014.26 1014.73 1014.96 1015.06 1014.90 1015.20 1015.66 1016.17 1016.61 1016.83 1017.25 1017.71 1018.18 1018.68 1019.29
1007.86 1011.77 1013.60 1013.99 1013.63 1014.32 1014.39 1015.05 1016.28 1016.43 1017.34 1017.03 1014.74 1013.21 1011.51 1010.82 1010.50 1010.47 1010.52 1010.66 1010.84 1010.99 1011.36 1011.58 1011.93 1012.39 1012.91 1013.04 1013.12 1013.47 1013.80 1014.09 1014.37 1014.72 1014.86 1014.94 1015.23 1015.63 1016.17 1016.80 1017.12 1017.38 1017.87 1018.70
1007.08 1009.55 1014.24 1013.80 1012.81 1013.12 1014.05 1014.11 1014.16 1015.01 1015.57 1015.27 1014.47 1012.43 1010.43 1009.84 1009.79 1010.20 1010.61 1010.95 1011.13 1011.47 1011.91 1012.19 1012.56 1012.75 1012.97 1013.02 1013.19 1013.37 1013.55 1013.69 1013.88 1013.97 1014.13 1014.51 1014.76 1015.21 1015.76 1016.28 1016.67 1017.06 1017.64 1018.40
1006.62 1009.20 1012.45 1013.49 1013.36 1012.89 1012.90 1013.19 1013.46 1014.31 1015.07 1014.83 1014.19 1012.06 1010.11 1009.92 1009.97 1010.29 1011.00 1011.36 1011.54 1011.95 1012.35 1012.64 1012.81 1012.91 1013.08 1013.35 1013.38 1013.31 1013.32 1013.43 1013.46 1013.61 1013.93 1014.17 1014.30 1014.70 1015.04 1015.25 1015.99 1016.88 1017.56 1018.17
1005.81 1009.09 1011.89 1013.74 1014.03 1013.10 1012.21 1012.04 1012.49 1012.95 1013.70 1013.83 1013.93 1011.48 1009.93 1010.06 1010.57 1010.88 1011.13 1011.50 1011.63 1011.78 1012.24 1012.57 1012.76 1012.91 1012.93 1013.11 1013.38 1013.58 1013.68 1013.68 1013.66 1013.63 1013.83 1013.88 1013.98 1014.27 1014.88 1015.26 1015.74 1016.41 1017.07 1017.78
1005.10 1007.63 1008.70 1009.07 1008.79 1010.72 1011.66 1011.75 1012.14 1012.61 1013.23 1012.78 1011.97 1011.04 1010.83 1010.45 1010.52 1010.83 1010.95 1011.07 1011.25 1011.39 1011.80 1012.10 1012.49 1012.62 1012.62 1012.94 1013.22 1013.40 1013.55 1013.78 1013.98 1014.11 1014.39 1014.49 1014.55 1014.47 1014.82 1015.36 1016.12 1016.84 1017.35 1017.86
1004.90 1007.12 1008.58 1008.91 1009.24 1009.68 1010.08 1010.60 1011.29 1011.83 1010.54 1011.58 1009.52 1010.19 1010.21 1009.96 1010.07 1010.27 1010.61 1010.83 1010.97 1011.29 1011.57 1011.83 1012.19 1012.45 1012.49 1012.72 1013.02 1013.03 1013.18 1013.38 1013.86 1014.27 1014.47 1014.75 1015.02 1015.21 1015.44 1015.85 1016.07 1016.39 1017.15 1017.86
1004.84 1007.34 1008.81 1010.12 1009.70 1009.74 1010.30 1010.27 1010.07 1009.78 1009.24 1010.21 1010.01 1009.16 1009.13 1009.25 1009.51 1009.83 1010.23 1010.52 1010.96 1011.30 1011.47 1011.68 1011.87 1011.85 1012.11 1012.34 1012.69 1013.02 1013.40 1013.68 1014.02 1014.48 1014.79 1015.07 1015.21 1015.77 1016.37 1016.54 1016.87 1017.08 1017.26 1017.50
1005.31 1007.08 1008.75 1011.12 1010.95 1010.82 1010.84 1008.37 1008.38 1008.39 1009.25 1008.65 1009.47 1007.98 1008.95 1009.25 1009.43 1009.65 1010.26 1010.66 1011.15 1011.37 1011.46 1011.69 1011.93 1012.00 1012.01 1012.06 1012.36 1013.08 1013.33 1013.75 1014.24 1014.63 1015.26 1015.58 1015.98 1016.27 1016.51 1016.93 1017.36 1017.54 1017.97 1017.85
1005.91 1007.35 1009.31 1011.98 1011.81 1011.14 1007.54 1006.67 1007.30 1007.92 1008.28 1008.26 1008.22 1008.41 1008.63 1008.92 1009.20 1009.48 1010.05 1010.64 1011.27 1011.57 1011.84 1012.24 1012.48 1012.56 1012.56 1012.34 1012.45 1012.71 1013.28 1014.00 1014.66 1015.27 1015.68 1016.11 1016.47 1016.76 1016.95 1017.16 1017.39 1017.47 1017.62 1017.78
1005.78 1007.05 1010.56 1011.82 1011.61 1009.55 1008.04 1007.28 1006.83 1007.42 1007.48 1007.66 1007.47 1008.28 1008.44 1008.92 1009.48 1009.71 1010.00 1010.95 1011.83 1012.42 1012.90 1013.11 1013.26 1013.18 1013.01 1012.95 1012.98 1013.19 1013.79 1014.33 1014.89 1015.37 1015.69 1016.05 1016.49 1016.82 1017.07 1017.14 1017.55 1017.86 1018.30 1018.34
1006.85 1007.64 1008.89 1011.17 1011.21 1009.28 1006.15 1005.95 1005.92 1007.24 1007.21 1006.36 1007.00 1007.69 1008.19 1009.00 1009.78 1010.53 1011.19 1011.72 1012.63 1013.29 1013.64 1013.82 1013.83 1013.63 1013.88 1013.90 1014.00 1014.47 1014.90 1015.13 1015.51 1015.70 1015.95 1016.26 1016.36 1016.72 1017.01 1017.00 1017.33 1017.77 1017.90 1018.20
1007.23 1008.38 1008.79 1009.81 1009.63 1007.83 1005.80 1005.47 1005.89 1007.37 1006.19 1005.04 1005.71 1006.84 1007.99 1009.02 1009.60 1010.84 1011.75 1012.73 1013.61 1014.44 1014.72 1014.69 1014.52 1014.71 1014.98 1014.87 1014.81 1015.25 1015.52 1015.88 1015.83 1015.92 1016.38 1016.67 1016.74 1017.12 1017.18 1017.24 1017.45 1017.82 1018.08 1018.27
1005.27 1006.65 1007.69 1008.79 1008.56 1006.95 1004.72 1005.33 1005.18 1005.56 1005.58 1005.89 1006.09 1006.80 1008.03 1008.95 1010.35 1011.45 1012.50 1013.72 1014.50 1015.16 1015.43 1015.41 1015.80 1016.08 1016.12 1015.81 1015.70 1016.00 1016.25 1016.34 1016.45 1016.59 1017.11 1017.30 1017.17 1017.16 1017.27 1017.71 1018.07 1018.58 1018.85 1018.66
1004.81 1003.92 1004.78 1005.62 1004.84 1004.18 1004.23 1004.03 1004.50 1004.88 1005.84 1006.50 1006.73 1007.37 1008.02 1009.51 1010.86 1012.10 1013.38 1014.59 1015.42 1015.96 1016.37 1016.71 1016.97 1017.14 1016.95 1016.77 1016.61 1016.78 1017.16 1016.86 1017.07 1017.39 1017.61 1017.86 1017.85 1017.89 1017.93 1018.29 1018.63 1018.77 1018.73 1018.72
1003.58 1003.50 1004.38 1005.10 1005.02 1004.74 1004.78 1005.06 1005.16 1005.64 1006.16 1006.85 1007.31 1007.90 1008.59 1009.85 1011.38 1013.08 1014.46 1015.69 1016.42 1016.93 1017.32 1017.67 1017.75 1017.90 1018.18 1017.95 1017.79 1017.77 1017.62 1017.37 1017.66 1017.92 1018.15 1018.33 1018.39 1018.37 1018.29 1018.48 1018.76 1019.11 1019.03 1018.92
1003.30 1003.93 1004.56 1005.20 1005.31 1005.23 1005.34 1005.46 1005.90 1006.51 1006.91 1007.66 1008.18 1008.62 1009.54 1010.77 1012.47 1013.79 1015.45 1016.62 1017.41 1017.75 1017.86 1018.04 1018.28 1018.94 1019.33 1019.27 1018.92 1018.61 1018.35 1018.08 1018.15 1018.48 1018.79 1018.91 1018.94 1019.10 1019.32 1019.34 1019.31 1019.32 1018.88 1018.75
1003.88 1003.97 1004.14 1003.89 1004.33 1004.02 1004.55 1005.19 1006.12 1007.26 1008.02 1008.58 1008.77 1010.16 1011.07 1011.80 1013.12 1014.54 1016.26 1017.34 1018.01 1018.64 1019.06 1019.27 1019.72 1020.08 1020.32 1020.43 1020.63 1020.28 1019.70 1019.03 1018.87 1019.00 1019.02 1019.00 1019.05 1019.22 1019.34 1019.30 1019.23 1018.88 1018.75 1018.65
Wind_Speed
13 8 17 16 14 9 10 12 11 8 7 6 9 9 11 9 8 8 7 8 9 14 10 10 9 10 9 11 11 12 13 14 12 7 5 4 5 4 4 5 8 9 8 8
6 21 15 14 14 10 6 11 11 4 7 3 6 10 9 10 9 9 11 10 8 8 10 13 12 12 13 13 14 14 14 13 12 9 7 4 5 4 4 3 5 6 7 7
18 11 15 17 17 16 10 10 9 6 4 2 5 9 11 9 9 9 9 9 9 9 10 11 16 17 13 16 16 15 16 16 13 12 7 4 4 3 4 4 4 5 7 8
15 16 22 20 19 14 16 4 5 5 3 3 2 6 4 5 17 15 13 9 9 10 8 10 16 16 18 17 13 15 14 15 14 14 11 14 11 9 7 7 6 7 9 9
11 15 23 20 19 17 4 9 5 5 4 4 4 3 4 5 5 7 16 12 13 12 11 12 15 18 16 15 16 15 15 15 15 16 15 12 11 8 7 5 7 9 9 9
4 4 14 12 12 12 12 11 8 6 4 6 8 8 6 7 9 5 6 12 15 13 11 10 9 9 12 12 13 13 15 16 16 16 17 15 15 11 9 9 8 9 6 5
6 4 3 6 12 18 6 11 4 2 4 8 5 9 11 10 11 3 4 5 7 12 11 10 10 9 11 15 16 14 15 17 16 16 16 18 15 15 14 12 11 9 7 5
15 10 9 9 12 9 13 13 6 9 6 5 2 8 7 14 5 4 5 8 4 5 3 9 10 9 9 10 11 12 14 16 16 16 17 15 17 10 12 12 9 9 9 9
17 6 6 9 6 14 5 7 3 6 1 4 6 6 7 7 8 6 8 6 7 6 5 1 5 8 9 9 10 10 9 11 11 15 14 14 13 15 13 14 9 10 10 7
12 9 3 1 9 2 10 10 5 2 6 5 5 6 5 6 11 10 9 7 5 3 5 2 1 2 3 6 7 9 10 11 10 9 11 12 13 14 14 9 10 12 10 9
18 9 4 5 9 14 9 9 5 6 3 5 0 6 2 9 9 8 8 7 6 7 6 4 3 1 3 3 4 6 7 8 8 9 9 9 9 9 7 9 7 7 7 10
3 8 9 4 1 7 8 12 6 6 6 3 3 7 3 9 8 9 8 7 6 6 4 2 3 4 4 6 6 7 7 8 8 7 7 7 7 7 7 7 7 7 8 8
11 8 11 3 5 4 17 16 16 5 4 7 6 6 5 10 8 5 8 6 4 4 4 4 4 6 5 4 5 6 6 6 5 5 6 6 7 7 6 6 7 7 8 8
8 8 6 15 15 10 9 14 13 5 4 5 13 8 6 8 9 8 7 7 6 4 4 4 4 5 3 4 4 5 5 5 4 4 5 6 5 6 8 7 7 6 6 8
7 6 5 5 16 17 25 27 23 20 24 13 20 19 12 6 5 6 7 5 2 4 5 4 3 4 4 3 5 5 6 6 6 6 6 6 3 4 5 6 7 7 7 6
5 5 6 6 6 17 21 20 23 29 28 16 6 11 7 4 4 5 4 5 5 5 5 4 4 4 4 5 6 6 5 5 4 5 5 4 6 4 2 4 5 5 5 6
8 7 5 2 3 9 2 28 27 25 21 24 14 13 7 6 5 5 6 5 5 5 4 6 6 5 4 5 4 4 5 4 5 4 2 3 4 5 6 6 5 5 6 5
9 6 5 3 3 3 8 21 20 23 23 25 19 4 8 9 6 6 4 1 5 5 2 4 5 6 6 3 2 2 3 4 3 1 2 2 3 4 4 5 5 5 5 8
9 7 6 7 6 4 4 6 21 18 17 21 25 15 10 8 2 6 1 5 5 5 5 4 5 5 6 5 3 5 4 4 4 4 5 6 6 5 6 5 5 4 3 3
5 7 5 4 7 12 1 9 15 7 7 15 15 18 19 10 10 4 5 5 7 7 5 5 5 4 7 7 6 6 3 2 2 3 5 5 5 5 6 5 6 3 3 4
9 8 13 6 5 8 7 7 14 9 10 12 19 15 9 7 6 8 8 7 5 4 6 6 7 7 7 6 6 7 5 6 5 2 2 2 1 1 1 3 2 3 4 5
11 13 9 4 3 12 8 9 17 7 2 6 6 8 9 9 9 8 9 7 7 7 7 8 7 7 7 7 6 7 8 6 5 4 3 2 1 2 3 5 2 1 3 4
5 10 11 13 7 4 16 11 5 5 7 5 7 5 9 11 7 9 8 7 6 7 5 5 5 6 7 7 7 8 6 6 5 4 4 3 3 2 2 3 2 2 4 4
2 5 6 6 5 8 10 3 6 4 7 7 6 8 8 9 10 9 8 6 6 5 5 2 5 7 7 6 8 5 5 5 5 5 4 3 3 3 3 2 2 2 2 1
5 7 7 1 1 6 3 5 8 6 8 9 8 6 9 13 10 10 7 6 5 5 5 5 7 7 8 7 8 7 7 6 6 5 3 4 3 2 1 1 2 2 2 3
3 6 9 7 11 7 12 10 10 9 7 8 13 8 6 8 11 12 8 6 5 7 5 8 8 7 6 5 7 8 8 6 4 4 2 2 2 2 1 0 2 3 5 5
Wind_Direction
188 185 202 188 192 232 189 180 186 230 181 160 227 248 241 232 199 197 236 262 193 179 190 181 177 185 188 174 184 180 175 185 192 195 185 182 193 186 214 190 184 170 170 178
161 218 192 193 193 221 256 197 209 283 121 145 268 263 238 222 237 209 200 218 235 189 178 175 182 204 192 188 184 181 187 189 192 189 193 182 181 197 198 186 180 170 170 175
200 192 196 210 194 198 217 199 209 207 133 208 280 271 233 245 227 228 229 195 201 216 193 179 186 197 205 200 188 186 187 188 194 193 184 192 175 184 181 195 189 194 181 182
215 213 194 200 203 193 202 148 69 93 101 208 12 289 270 235 226 221 221 209 210 209 203 192 188 195 199 200 196 194 189 190 194 191 190 195 199 198 198 193 189 193 194 193
177 197 187 196 196 183 174 139 110 71 83 32 200 271 269 223 268 250 216 214 210 209 205 205 197 200 197 194 199 194 193 194 194 193 197 194 200 199 193 176 187 201 203 197
129 289 183 188 182 171 131 94 59 45 52 256 195 219 247 211 227 239 224 208 217 212 214 206 214 190 199 194 201 201 198 201 197 197 199 203 201 201 195 196 198 195 186 186
135 157 112 181 160 140 139 153 109 176 205 239 139 213 240 276 282 275 276 280 261 206 201 199 193 191 192 199 202 201 204 209 202 200 199 204 206 203 203 202 203 174 176 183
153 186 187 175 169 175 166 176 161 176 192 205 246 237 250 221 218 228 243 254 250 340 251 196 194 198 196 201 206 210 208 211 205 205 207 206 210 208 208 208 199 190 196 200
170 142 173 154 138 148 182 188 36 97 101 63 202 249 288 233 242 232 240 241 254 228 255 204 191 184 182 189 197 203 209 226 217 213 211 209 208 212 211 212 201 195 188 183
146 112 245 127 125 286 181 146 131 262 153 217 245 231 227 194 220 224 243 206 213 152 125 118 62 295 271 213 205 196 196 201 209 218 217 218 212 213 216 209 205 196 182 164
146 113 181 152 201 164 157 185 192 130 197 174 121 256 253 200 177 160 102 82 86 87 71 62 53 27 235 244 226 223 215 209 209 209 212 212 212 212 203 214 203 185 148 156
107 106 146 155 341 179 186 171 168 165 209 238 125 261 124 97 88 102 102 94 89 97 118 144 202 212 227 235 238 231 223 213 214 205 211 223 199 185 196 182 153 144 154 161
158 142 125 101 348 210 204 178 197 102 77 199 141 259 173 104 97 79 125 115 135 163 182 245 241 229 232 235 228 232 249 258 226 206 199 197 177 166 189 165 153 157 156 158
108 157 161 193 199 120 187 191 191 168 155 154 223 179 121 145 155 158 163 185 223 233 252 262 295 279 267 221 223 226 226 227 218 199 202 216 184 166 165 161 156 153 153 156
123 130 177 164 159 166 178 182 183 197 218 187 229 224 223 190 198 153 172 213 271 303 295 284 258 269 264 252 235 233 212 194 178 192 200 217 194 169 157 162 167 156 157 165
158 135 114 1 162 164 183 183 191 202 214 227 242 270 195 165 140 159 256 285 283 277 265 307 322 303 266 243 232 225 227 205 169 199 219 197 159 145 135 128 145 151 156 158
138 127 116 159 76 87 320 200 199 209 205 215 210 222 119 125 144 184 242 241 245 270 329 327 319 311 298 256 220 231 216 172 177 188 210 159 141 147 164 159 158 166 173 151
143 95 79 136 112 195 249 177 204 210 208 217 234 202 192 197 224 205 185 166 266 267 300 10 347 337 337 350 73 122 131 134 144 115 160 160 175 192 173 165 179 167 165 178
136 99 106 148 211 280 208 210 189 181 222 217 224 225 228 240 247 261 311 66 86 78 50 28 358 325 345 15 45 90 102 125 143 191 205 205 191 179 179 174 174 179 167 187
116 121 110 148 156 210 218 174 176 99 267 203 206 213 218 201 228 186 125 85 65 53 43 18 335 9 33 19 49 61 48 38 292 259 239 220 197 180 193 175 168 158 165 177
154 176 189 176 207 263 201 165 119 143 234 197 202 204 183 176 193 150 120 86 88 71 37 14 24 50 30 19 45 55 39 12 326 302 242 219 134 186 170 131 133 148 154 154
165 162 186 127 147 255 170 141 153 198 108 161 129 158 160 128 117 119 116 108 88 64 36 31 46 45 26 16 43 51 39 352 11 39 41 23 108 137 135 132 97 93 165 165
161 196 169 189 192 212 175 169 158 139 142 183 128 131 122 128 139 137 130 117 94 78 64 45 67 63 33 22 34 58 3 8 30 44 34 31 41 48 67 96 108 142 170 168
212 152 143 103 209 168 189 48 136 156 155 139 124 138 129 129 125 111 106 105 97 78 61 33 73 60 46 22 40 43 13 13 55 53 43 46 67 35 44 53 134 153 186 202
188 118 148 98 8 63 135 183 164 118 109 109 90 103 121 121 117 116 109 100 93 85 65 57 67 61 40 21 32 19 15 20 59 60 40 34 43 56 28 303 202 219 256 190
186 166 179 213 178 162 199 162 145 140 144 139 124 98 79 110 117 116 102 87 88 70 49 62 51 54 33 33 22 6 357 8 53 72 60 62 63 67 52 125 307 318 280 301